Wind_Speed
10 11 11 11 11 11 11 12 12 11 11 12 12 12 12 13 12 13 13 13 12 12 11 11 11 12 12 12 13 13 14 14 14 14 14 14 14 13 13 13 13 13 13 13
12 12 12 12 12 12 13 13 13 12 13 13 13 13 13 13 13 13 13 13 12 12 12 12 12 13 13 12 12 12 13 14 14 14 14 14 14 14 14 14 14 14 14 13
13 13 13 14 13 13 14 14 14 13 14 14 14 14 14 14 14 14 14 14 13 14 13 13 13 13 13 13 13 13 13 13 13 13 14 14 15 15 15 15 15 15 15 14
14 14 14 15 15 14 15 14 14 14 15 15 14 15 14 15 15 14 14 14 14 14 14 14 14 14 14 14 14 14 14 14 14 15 15 15 16 16 16 16 16 16 15 15
15 14 15 15 15 15 14 14 14 14 15 15 15 16 16 16 15 15 15 15 15 15 15 15 15 14 15 15 15 15 15 15 16 16 17 17 17 17 17 17 17 17 16 16
15 15 16 16 16 15 15 15 14 14 15 15 15 16 17 16 16 15 15 15 15 15 15 15 15 15 16 16 16 16 17 17 17 17 17 18 18 18 18 18 18 18 18 18
16 16 16 16 16 15 16 15 15 14 15 15 16 17 17 16 16 17 16 16 16 15 15 15 16 16 16 16 16 17 17 17 18 18 18 18 19 19 19 19 19 19 19 19
17 17 17 17 17 16 16 16 15 15 15 15 15 17 16 17 16 16 16 16 16 16 16 16 16 16 16 16 17 17 17 17 18 18 19 19 19 19 19 19 19 19 20 20
17 18 17 18 17 17 17 16 16 16 16 16 16 17 16 17 16 17 17 17 16 16 16 17 17 17 17 17 18 18 18 18 18 18 19 19 20 20 20 20 20 21 21 21
18 18 18 17 17 17 18 17 16 16 17 17 17 17 17 18 17 16 17 17 17 17 17 18 18 18 18 18 19 19 19 19 19 19 19 19 20 20 20 21 21 22 22 21
18 18 17 18 18 18 18 18 18 18 18 18 18 18 18 18 18 18 18 18 18 18 18 18 18 18 18 19 19 20 20 19 19 19 19 20 20 20 21 21 21 22 22 22
19 19 18 18 18 18 19 19 19 19 19 19 19 19 18 17 18 19 19 19 20 19 19 19 19 19 20 19 20 20 20 20 20 21 21 21 21 21 21 22 22 23 23 24
19 19 19 18 18 19 19 19 19 20 20 20 20 21 20 20 19 20 20 20 21 20 19 19 19 19 20 20 20 21 21 21 22 22 22 21 22 22 23 23 24 24 24 25
19 19 20 20 19 20 20 20 20 21 22 22 22 22 22 22 22 22 22 22 22 21 20 20 19 20 20 20 21 21 22 22 22 23 23 23 23 23 23 24 24 25 25 25
19 19 20 21 21 21 22 22 22 23 23 24 24 23 23 23 24 24 24 24 23 22 21 21 21 21 21 22 22 22 22 23 23 24 24 24 24 24 25 25 25 26 26 26
19 20 20 21 21 22 23 23 23 24 25 25 25 25 25 24 24 25 25 24 24 23 23 23 23 23 24 23 23 23 24 24 25 25 25 25 25 26 26 26 26 27 27 27
19 19 20 21 21 23 24 23 22 23 24 24 25 25 24 24 24 24 25 24 24 24 24 24 25 25 25 25 25 25 25 25 25 25 26 26 26 26 26 27 27 28 28 29
18 18 19 20 21 23 23 22 23 23 23 24 25 25 24 24 25 24 25 25 24 25 26 26 26 26 26 26 26 26 26 27 27 27 27 27 26 26 27 27 28 28 28 29
18 18 19 20 21 23 22 22 23 24 24 24 25 25 25 26 26 25 24 25 25 25 26 27 27 27 27 27 27 27 28 28 28 28 28 28 28 27 27 28 28 28 29 29
20 21 20 21 22 23 23 24 25 25 25 25 25 25 26 27 27 25 25 25 26 26 26 27 27 28 28 28 28 28 29 29 29 29 29 29 29 28 28 28 28 28 29 29
20 21 22 22 23 24 24 24 25 25 26 25 26 26 26 27 27 26 26 26 26 27 27 28 28 29 30 30 30 30 30 30 29 30 30 30 30 30 30 30 29 30 30 30
19 21 22 23 24 24 24 25 25 26 26 26 27 27 27 27 27 28 28 28 27 27 28 28 29 30 31 31 32 32 32 31 31 31 31 31 31 31 31 31 31 31 31 32
22 22 23 24 24 25 25 26 27 27 27 27 28 30 30 29 30 30 30 29 28 29 29 30 30 30 31 32 32 32 32 32 32 32 32 32 32 32 32 32 32 32 32 33
23 23 24 24 24 25 26 28 28 28 28 29 29 30 30 30 30 30 30 30 29 29 29 30 30 31 32 32 32 33 33 33 33 33 33 33 33 33 33 33 33 33 33 33
25 25 25 25 25 26 27 28 29 29 29 29 29 29 30 30 29 30 29 30 30 30 31 32 32 32 32 33 33 33 34 34 34 34 33 33 34 34 34 34 33 33 34 34
25 26 26 26 26 27 28 28 29 30 30 30 30 29 30 29 29 29 29 30 30 30 31 31 31 31 32 32 32 33 33 34 34 34 34 33 33 33 33 33 34 33 34 34
Wind_Direction
245 244 242 246 245 246 250 254 259 264 269 273 274 275 278 283 283 285 285 285 286 287 286 286 289 288 284 281 279 279 277 274 273 273 274 276 276 281 281 281 283 283 286 285
247 246 245 247 249 250 253 255 258 262 268 272 274 275 278 282 282 284 285 284 283 283 283 284 289 289 285 284 282 283 280 279 278 275 276 277 279 279 282 281 282 284 283 283
250 250 247 248 249 250 254 256 258 262 267 272 274 271 273 277 279 281 282 282 282 282 283 283 284 284 281 281 283 282 280 280 279 278 279 281 280 280 281 281 282 284 283 281
249 248 249 251 252 253 254 256 258 263 265 269 274 275 272 278 278 279 279 280 280 280 281 281 283 282 280 279 280 280 279 279 279 280 282 282 281 280 282 282 283 284 285 282
251 249 250 251 253 256 255 256 258 260 264 268 272 275 274 277 279 280 279 278 278 279 280 279 280 280 280 279 279 279 279 279 281 282 282 283 282 280 280 281 282 285 284 280
252 251 251 252 252 253 255 255 255 259 264 267 271 273 273 280 283 280 275 276 279 280 280 280 281 280 280 281 279 279 281 280 281 282 283 284 283 282 280 280 280 282 282 280
252 252 250 249 248 247 252 254 256 261 266 268 270 273 275 280 280 279 278 277 278 279 281 282 283 282 281 282 281 280 282 283 282 281 282 282 282 281 279 278 278 280 281 280
255 253 251 250 248 249 250 253 253 254 259 267 270 273 279 278 277 277 277 277 277 279 281 283 284 284 281 281 282 281 283 282 282 282 282 281 281 280 279 278 279 281 283 282
255 255 251 250 247 248 246 251 253 253 254 256 263 271 273 274 276 277 278 278 279 280 282 282 284 285 283 282 282 284 283 281 281 283 284 283 281 279 277 277 279 280 282 282
256 256 251 250 251 252 253 251 249 251 255 257 262 268 275 273 275 279 279 279 280 281 283 283 283 284 285 284 284 284 282 282 282 283 284 284 282 279 277 279 279 280 281 282
257 257 254 254 253 252 251 247 247 249 253 256 260 263 270 273 276 279 279 280 280 281 283 283 282 283 283 283 284 283 282 282 282 282 283 284 283 281 279 279 281 281 281 282
256 257 257 256 257 254 254 251 248 249 252 255 259 263 267 270 273 277 277 277 279 279 280 280 281 281 281 280 282 282 282 281 282 282 282 282 282 281 280 281 281 282 283 282
257 257 258 255 254 251 252 251 251 251 252 253 259 264 267 271 272 275 277 277 278 278 277 277 279 280 279 279 280 282 283 282 281 280 281 282 283 282 281 281 281 282 284 284
257 257 256 254 254 253 252 251 250 251 255 259 260 264 269 271 272 273 276 277 278 275 275 275 278 280 280 279 280 281 283 283 282 281 280 281 282 282 281 281 282 283 284 284
258 258 257 256 257 258 255 252 253 255 260 263 263 265 268 271 273 275 275 276 277 276 274 275 278 279 280 280 281 281 281 282 283 283 282 282 282 282 282 281 282 283 285 285
262 260 259 259 259 260 259 257 257 259 261 264 265 266 269 271 272 273 273 273 274 275 274 274 275 278 280 281 282 282 282 282 283 283 283 283 282 282 282 281 281 282 284 285
262 262 262 261 261 262 260 259 261 262 263 266 266 267 267 269 271 273 273 272 273 275 275 275 276 278 278 279 280 281 281 281 282 283 283 282 282 283 283 283 283 282 283 284
263 264 265 265 265 264 264 263 266 267 268 267 265 267 269 270 271 273 274 273 273 275 275 275 276 279 279 279 280 281 281 282 282 282 283 282 283 283 283 283 284 285 285 284
264 268 269 267 267 268 267 266 267 269 270 270 268 269 269 270 271 272 274 274 274 275 275 275 277 278 278 279 281 282 282 282 282 281 282 282 282 282 283 284 285 286 286 286
263 265 268 269 269 270 271 270 271 274 273 270 272 273 271 271 271 271 273 275 276 276 276 276 276 278 279 280 281 281 282 283 283 283 282 282 281 282 282 282 283 284 285 286
267 267 266 267 268 271 273 274 276 276 277 274 272 273 273 273 272 271 271 274 276 276 277 278 278 278 280 281 282 282 282 283 283 283 282 281 281 282 282 282 283 283 284 285
271 270 269 268 269 271 273 275 274 275 276 276 274 273 273 273 273 272 272 274 276 276 277 278 278 278 280 281 282 283 284 285 284 283 282 282 283 283 282 282 282 283 283 284
269 270 270 269 270 272 272 273 274 275 276 277 276 275 276 275 274 274 275 276 277 278 278 279 278 279 279 280 282 283 284 284 285 284 284 283 283 283 283 283 283 283 283 284
268 269 269 270 270 270 271 272 273 275 276 277 278 278 276 275 275 274 274 275 277 277 279 280 280 279 280 281 281 282 282 283 284 284 285 285 285 284 283 282 283 283 283 284
269 269 269 271 272 273 273 274 273 273 275 278 279 278 277 277 277 277 276 276 279 280 280 281 281 282 283 284 283 283 283 283 283 284 284 284 284 284 283 283 283 283 283 283
270 272 272 273 273 273 274 274 274 276 276 276 276 277 278 278 277 277 276 277 280 281 281 281 282 282 283 285 284 284 283 284 285 285 284 283 284 284 283 283 283 283 284 284
Height
5830 5832 5833 5834 5835 5837 5838 5838 5839 5840 5841 5841 5842 5842 5842 5842 5842 5842 5842 5842 5842 5842 5842 5842 5841 5841 5841 5841 5841 5841 5841 5841 5841 5841 5841 5841 5841 5841 5841 5840 5840 5839 5839 5838
5829 5830 5831 5832 5833 5834 5835 5836 5837 5838 5838 5839 5839 5840 5840 5840 5840 5840 5839 5839 5840 5840 5840 5840 5839 5839 5839 5839 5839 5839 5839 5838 5838 5838 5838 5838 5838 5838 5838 5837 5837 5836 5836 5835
5826 5828 5828 5829 5830 5832 5832 5833 5834 5835 5835 5835 5836 5837 5837 5837 5837 5837 5837 5837 5837 5837 5837 5837 5837 5837 5836 5836 5836 5836 5836 5835 5835 5835 5835 5835 5835 5834 5834 5834 5834 5833 5832 5832
5822 5824 5825 5826 5827 5828 5829 5830 5831 5832 5832 5833 5834 5833 5834 5834 5834 5834 5834 5834 5834 5834 5834 5834 5834 5834 5833 5833 5833 5833 5833 5832 5832 5832 5831 5831 5831 5831 5831 5830 5830 5829 5829 5828
5819 5821 5822 5823 5824 5825 5826 5827 5828 5828 5829 5829 5830 5830 5831 5831 5831 5831 5831 5831 5831 5831 5831 5831 5831 5830 5830 5830 5830 5830 5829 5829 5828 5828 5828 5827 5827 5827 5826 5826 5826 5825 5825 5824
5816 5817 5819 5819 5820 5822 5823 5824 5824 5825 5825 5826 5827 5827 5827 5827 5827 5827 5827 5827 5827 5827 5827 5827 5827 5827 5827 5826 5826 5826 5825 5825 5824 5824 5824 5823 5822 5822 5822 5822 5822 5821 5821 5820
5812 5813 5814 5815 5816 5818 5819 5820 5821 5821 5821 5823 5824 5823 5824 5824 5823 5823 5824 5824 5824 5824 5824 5824 5823 5823 5823 5823 5822 5822 5822 5821 5820 5820 5819 5818 5818 5817 5817 5817 5817 5816 5816 5815
5808 5809 5810 5811 5813 5813 5814 5816 5818 5819 5820 5820 5820 5820 5821 5820 5820 5820 5820 5820 5820 5821 5820 5820 5820 5819 5819 5819 5818 5818 5817 5816 5816 5815 5814 5814 5813 5812 5812 5812 5812 5811 5811 5810
5803 5805 5806 5807 5808 5810 5811 5812 5814 5815 5815 5816 5816 5817 5817 5816 5816 5817 5817 5817 5817 5817 5816 5816 5816 5815 5815 5814 5814 5813 5812 5812 5811 5810 5810 5809 5808 5807 5807 5807 5806 5806 5805 5804
5799 5800 5802 5803 5804 5805 5807 5808 5809 5810 5810 5811 5813 5813 5813 5812 5812 5813 5813 5812 5812 5812 5812 5812 5811 5811 5810 5810 5809 5809 5808 5807 5806 5805 5805 5804 5803 5802 5802 5801 5801 5800 5799 5799
5794 5796 5798 5799 5799 5801 5803 5804 5804 5805 5806 5807 5808 5811 5808 5808 5808 5808 5808 5808 5808 5808 5807 5807 5806 5806 5805 5804 5803 5803 5803 5802 5801 5801 5800 5799 5798 5797 5796 5796 5795 5794 5794 5793
5789 5790 5792 5794 5795 5795 5797 5798 5800 5801 5802 5802 5803 5807 5804 5804 5803 5803 5803 5803 5803 5803 5803 5802 5801 5801 5800 5800 5799 5798 5798 5797 5796 5796 5795 5794 5793 5792 5791 5790 5789 5789 5788 5787
5784 5785 5787 5788 5791 5791 5791 5793 5794 5795 5796 5797 5798 5801 5799 5799 5799 5799 5798 5798 5798 5798 5797 5797 5797 5796 5795 5795 5794 5793 5792 5792 5791 5790 5789 5788 5787 5786 5785 5785 5784 5783 5782 5781
5779 5780 5782 5784 5784 5785 5785 5787 5788 5789 5790 5791 5792 5794 5794 5793 5793 5793 5793 5792 5792 5792 5792 5792 5791 5791 5790 5789 5789 5788 5787 5786 5785 5784 5783 5782 5781 5780 5779 5779 5778 5777 5775 5774
5773 5775 5776 5777 5778 5779 5780 5781 5782 5783 5784 5785 5787 5787 5788 5787 5787 5787 5787 5786 5786 5786 5786 5786 5786 5785 5785 5784 5783 5782 5782 5780 5779 5778 5777 5776 5775 5774 5773 5772 5771 5770 5769 5768
5768 5769 5770 5771 5773 5773 5773 5775 5776 5777 5778 5779 5780 5781 5781 5781 5781 5781 5780 5780 5780 5780 5780 5780 5780 5779 5779 5778 5777 5776 5775 5774 5773 5772 5771 5770 5768 5767 5766 5765 5764 5763 5762 5761
5763 5764 5764 5765 5766 5766 5768 5770 5770 5771 5771 5773 5773 5774 5774 5774 5775 5775 5774 5774 5774 5774 5774 5773 5773 5773 5772 5771 5771 5770 5769 5768 5767 5766 5764 5763 5762 5760 5759 5758 5757 5756 5755 5753
5758 5758 5758 5759 5761 5760 5765 5764 5764 5764 5765 5765 5765 5766 5767 5767 5767 5767 5767 5767 5767 5767 5767 5767 5766 5766 5765 5765 5764 5763 5762 5761 5760 5758 5757 5756 5754 5753 5752 5751 5750 5748 5747 5745
5752 5753 5753 5754 5754 5755 5758 5757 5757 5758 5758 5759 5759 5759 5759 5759 5760 5760 5760 5760 5760 5760 5760 5760 5759 5758 5758 5757 5756 5755 5754 5753 5752 5751 5749 5748 5747 5746 5744 5743 5742 5740 5739 5737
5747 5748 5748 5748 5748 5749 5752 5750 5750 5752 5751 5752 5752 5752 5752 5752 5753 5754 5754 5753 5753 5753 5752 5752 5752 5751 5750 5749 5748 5747 5746 5745 5744 5743 5741 5740 5739 5738 5736 5735 5734 5733 5731 5729
5741 5742 5743 5743 5742 5743 5745 5744 5745 5746 5746 5745 5744 5744 5744 5744 5745 5745 5745 5744 5744 5744 5744 5744 5743 5743 5742 5741 5740 5739 5738 5737 5736 5734 5733 5732 5730 5729 5728 5727 5725 5724 5722 5721
5736 5736 5737 5737 5737 5739 5738 5738 5739 5738 5737 5737 5737 5737 5737 5736 5736 5736 5737 5737 5736 5736 5736 5736 5735 5735 5734 5733 5732 5731 5730 5728 5727 5725 5724 5723 5722 5720 5719 5718 5716 5715 5713 5712
5730 5731 5730 5731 5733 5732 5731 5731 5731 5731 5730 5730 5729 5729 5729 5729 5729 5729 5729 5729 5728 5728 5728 5727 5726 5726 5725 5724 5723 5722 5721 5719 5717 5716 5715 5714 5712 5711 5710 5708 5707 5705 5704 5702
5724 5724 5724 5724 5725 5724 5724 5724 5723 5723 5723 5722 5722 5722 5721 5721 5721 5720 5720 5720 5720 5720 5719 5718 5717 5716 5716 5715 5714 5712 5711 5710 5708 5707 5706 5704 5702 5701 5700 5698 5697 5695 5694 5692
5718 5718 5717 5717 5718 5717 5717 5717 5716 5716 5716 5715 5714 5714 5713 5713 5712 5712 5712 5711 5711 5710 5710 5709 5708 5707 5706 5705 5704 5703 5701 5700 5698 5697 5696 5694 5693 5691 5690 5688 5687 5685 5684 5682
5711 5711 5711 5711 5710 5710 5710 5709 5708 5708 5708 5707 5707 5706 5705 5704 5704 5704 5703 5703 5702 5701 5700 5699 5698 5698 5697 5695 5694 5693 5691 5690 5688 5687 5686 5684 5683 5681 5680 5678 5676 5674 5673 5671